owner,sensor,date,latitude,longitude,vertical_datum,wind_speed,wind_to_direction,wind_speed_of_gust,qcFlag 
DISL,ioos:station:DISL:PPTA:1,2015-10-01T00:00:00Z,30.2791,-87.5561,0.0,2.29,315.3,-9999.0,'1111122,1111122,1111122' 
DISL,ioos:station:DISL:PPTA:1,2015-10-01T00:30:00Z,30.2791,-87.5561,0.0,2.77,333.9,-9999.0,'1111122,1111122,1111122' 
DISL,ioos:station:DISL:PPTA:1,2015-10-01T01:00:00Z,30.2791,-87.5561,0.0,1.78,317.5,-9999.0,'1111122,1111122,1111122' 
DISL,ioos:station:DISL:PPTA:1,2015-10-01T01:30:00Z,30.2791,-87.5561,0.0,2.79,308.9,-9999.0,'1111122,1111122,1111122' 
DISL,ioos:station:DISL:PPTA:1,2015-10-01T02:00:00Z,30.2791,-87.5561,0.0,2.98,315.8,-9999.0,'1111122,1111122,1111122' 
DISL,ioos:station:DISL:PPTA:1,2015-10-01T02:30:00Z,30.2791,-87.5561,0.0,2.96,333.9,-9999.0,'1111122,1111122,1111122' 
DISL,ioos:station:DISL:PPTA:1,2015-10-01T03:00:00Z,30.2791,-87.5561,0.0,3.98,335.1,-9999.0,'1111122,1111122,1111122' 
DISL,ioos:station:DISL:PPTA:1,2015-10-01T03:30:00Z,30.2791,-87.5561,0.0,3.98,342.4,-9999.0,'1111122,1111122,1111122' 
DISL,ioos:station:DISL:PPTA:1,2015-10-01T04:00:00Z,30.2791,-87.5561,0.0,4.21,350.4,-9999.0,'1111122,1111122,1111122' 
DISL,ioos:station:DISL:PPTA:1,2015-10-01T04:30:00Z,30.2791,-87.5561,0.0,4.31,350.4,-9999.0,'1111122,1111122,1111122' 
DISL,ioos:station:DISL:PPTA:1,2015-10-01T05:00:00Z,30.2791,-87.5561,0.0,4.39,345.3,-9999.0,'1111122,1111122,1111122' 
DISL,ioos:station:DISL:PPTA:1,2015-10-01T05:30:00Z,30.2791,-87.5561,0.0,4.76,353.5,-9999.0,'1111122,1111122,1111122' 
DISL,ioos:station:DISL:PPTA:1,2015-10-01T06:00:00Z,30.2791,-87.5561,0.0,4.78,359.7,-9999.0,'1111122,1111122,1111122' 
DISL,ioos:station:DISL:PPTA:1,2015-10-01T06:30:00Z,30.2791,-87.5561,0.0,4.08,359.4,-9999.0,'1111122,1111122,1111122' 
DISL,ioos:station:DISL:PPTA:1,2015-10-01T07:00:00Z,30.2791,-87.5561,0.0,4.14,348.2,-9999.0,'1111122,1111122,1111122' 
DISL,ioos:station:DISL:PPTA:1,2015-10-01T07:30:00Z,30.2791,-87.5561,0.0,4.38,357.8,-9999.0,'1111122,1111122,1111122' 
DISL,ioos:station:DISL:PPTA:1,2015-10-01T08:00:00Z,30.2791,-87.5561,0.0,4.4,350.9,-9999.0,'1111122,1111122,1111122' 
DISL,ioos:station:DISL:PPTA:1,2015-10-01T08:30:00Z,30.2791,-87.5561,0.0,4.85,334.2,-9999.0,'1111122,1111122,1111122' 
DISL,ioos:station:DISL:PPTA:1,2015-10-01T09:00:00Z,30.2791,-87.5561,0.0,5.14,336.9,-9999.0,'1111122,1111122,1111122' 
DISL,ioos:station:DISL:PPTA:1,2015-10-01T09:30:00Z,30.2791,-87.5561,0.0,6.07,340.1,-9999.0,'1111122,1111122,1111122' 
DISL,ioos:station:DISL:PPTA:1,2015-10-01T10:00:00Z,30.2791,-87.5561,0.0,5.15,343.8,-9999.0,'1111122,1111122,1111122' 
DISL,ioos:station:DISL:PPTA:1,2015-10-01T10:30:00Z,30.2791,-87.5561,0.0,5.34,354.1,-9999.0,'1111122,1111122,1111122' 
DISL,ioos:station:DISL:PPTA:1,2015-10-01T11:00:00Z,30.2791,-87.5561,0.0,5.39,352.9,-9999.0,'1111122,1111122,1111122' 
DISL,ioos:station:DISL:PPTA:1,2015-10-01T11:30:00Z,30.2791,-87.5561,0.0,5.3,344.4,-9999.0,'1111122,1111122,1111122' 
DISL,ioos:station:DISL:PPTA:1,2015-10-01T12:00:00Z,30.2791,-87.5561,0.0,5.11,348.5,-9999.0,'1111122,1111122,1111122' 
DISL,ioos:station:DISL:PPTA:1,2015-10-01T12:30:00Z,30.2791,-87.5561,0.0,4.66,353.2,-9999.0,'1111122,1111122,1111122' 
DISL,ioos:station:DISL:PPTA:1,2015-10-01T13:00:00Z,30.2791,-87.5561,0.0,5.14,344.4,-9999.0,'1111122,1111122,1111122' 
DISL,ioos:station:DISL:PPTA:1,2015-10-01T13:30:00Z,30.2791,-87.5561,0.0,5.41,346.3,-9999.0,'1111122,1111122,1111122' 
DISL,ioos:station:DISL:PPTA:1,2015-10-01T14:00:00Z,30.2791,-87.5561,0.0,6.52,348.8,-9999.0,'1111122,1111122,1111122' 
DISL,ioos:station:DISL:PPTA:1,2015-10-01T14:30:00Z,30.2791,-87.5561,0.0,6.45,5.703,-9999.0,'1111122,1111122,1111122' 
DISL,ioos:station:DISL:PPTA:1,2015-10-01T15:00:00Z,30.2791,-87.5561,0.0,6.33,343.6,-9999.0,'1111122,1111122,1111122' 
DISL,ioos:station:DISL:PPTA:1,2015-10-01T15:30:00Z,30.2791,-87.5561,0.0,6.26,342.7,-9999.0,'1111122,1111122,1111122' 
DISL,ioos:station:DISL:PPTA:1,2015-10-01T16:00:00Z,30.2791,-87.5561,0.0,6.28,340.8,-9999.0,'1111122,1111122,1111122' 
DISL,ioos:station:DISL:PPTA:1,2015-10-01T16:30:00Z,30.2791,-87.5561,0.0,5.78,334.1,-9999.0,'1111122,1111122,1111122' 
DISL,ioos:station:DISL:PPTA:1,2015-10-01T17:00:00Z,30.2791,-87.5561,0.0,5.73,341.3,-9999.0,'1111122,1111122,1111122' 
DISL,ioos:station:DISL:PPTA:1,2015-10-01T17:30:00Z,30.2791,-87.5561,0.0,5.89,319.2,-9999.0,'1111122,1111122,1111122' 
DISL,ioos:station:DISL:PPTA:1,2015-10-01T18:00:00Z,30.2791,-87.5561,0.0,5.83,333.3,-9999.0,'1111122,1111122,1111122' 
DISL,ioos:station:DISL:PPTA:1,2015-10-01T18:30:00Z,30.2791,-87.5561,0.0,5.82,338.0,-9999.0,'1111122,1111122,1111122' 
DISL,ioos:station:DISL:PPTA:1,2015-10-01T19:00:00Z,30.2791,-87.5561,0.0,6.16,347.0,-9999.0,'1111122,1111122,1111122' 
DISL,ioos:station:DISL:PPTA:1,2015-10-01T19:30:00Z,30.2791,-87.5561,0.0,6.32,337.1,-9999.0,'1111122,1111122,1111122' 
DISL,ioos:station:DISL:PPTA:1,2015-10-01T20:00:00Z,30.2791,-87.5561,0.0,6.99,344.6,-9999.0,'1111122,1111122,1111122' 
DISL,ioos:station:DISL:PPTA:1,2015-10-01T20:30:00Z,30.2791,-87.5561,0.0,5.92,346.9,-9999.0,'1111122,1111122,1111122' 
DISL,ioos:station:DISL:PPTA:1,2015-10-01T21:00:00Z,30.2791,-87.5561,0.0,6.06,336.9,-9999.0,'1111122,1111122,1111122' 
DISL,ioos:station:DISL:PPTA:1,2015-10-01T21:30:00Z,30.2791,-87.5561,0.0,6.14,353.2,-9999.0,'1111122,1111122,1111122' 
DISL,ioos:station:DISL:PPTA:1,2015-10-01T22:00:00Z,30.2791,-87.5561,0.0,4.94,348.1,-9999.0,'1111122,1111122,1111122' 
DISL,ioos:station:DISL:PPTA:1,2015-10-01T22:30:00Z,30.2791,-87.5561,0.0,6.48,341.7,-9999.0,'1111122,1111122,1111122' 
DISL,ioos:station:DISL:PPTA:1,2015-10-01T23:00:00Z,30.2791,-87.5561,0.0,4.96,345.9,-9999.0,'1111122,1111122,1111122' 
DISL,ioos:station:DISL:PPTA:1,2015-10-01T23:30:00Z,30.2791,-87.5561,0.0,4.95,348.5,-9999.0,'1111122,1111122,1111122' 
DISL,ioos:station:DISL:PPTA:1,2015-10-02T00:00:00Z,30.2791,-87.5561,0.0,4.68,335.5,-9999.0,'1111122,1111122,1111122' 
DISL,ioos:station:DISL:PPTA:1,2015-10-02T00:30:00Z,30.2791,-87.5561,0.0,4.34,334.1,-9999.0,'1111122,1111122,1111122' 
DISL,ioos:station:DISL:PPTA:1,2015-10-02T01:00:00Z,30.2791,-87.5561,0.0,5.09,336.0,-9999.0,'1111122,1111122,1111122' 
DISL,ioos:station:DISL:PPTA:1,2015-10-02T01:30:00Z,30.2791,-87.5561,0.0,5.4,347.6,-9999.0,'1111122,1111122,1111122' 
DISL,ioos:station:DISL:PPTA:1,2015-10-02T02:00:00Z,30.2791,-87.5561,0.0,5.41,334.8,-9999.0,'1111122,1111122,1111122' 
DISL,ioos:station:DISL:PPTA:1,2015-10-02T02:30:00Z,30.2791,-87.5561,0.0,5.0,328.0,-9999.0,'1111122,1111122,1111122' 
DISL,ioos:station:DISL:PPTA:1,2015-10-02T03:00:00Z,30.2791,-87.5561,0.0,4.85,345.8,-9999.0,'1111122,1111122,1111122' 
DISL,ioos:station:DISL:PPTA:1,2015-10-02T03:30:00Z,30.2791,-87.5561,0.0,4.47,337.2,-9999.0,'1111122,1111122,1111122' 
DISL,ioos:station:DISL:PPTA:1,2015-10-02T04:00:00Z,30.2791,-87.5561,0.0,4.78,346.3,-9999.0,'1111122,1111122,1111122' 
DISL,ioos:station:DISL:PPTA:1,2015-10-02T04:30:00Z,30.2791,-87.5561,0.0,4.55,354.1,-9999.0,'1111122,1111122,1111122' 
DISL,ioos:station:DISL:PPTA:1,2015-10-02T05:00:00Z,30.2791,-87.5561,0.0,4.87,349.1,-9999.0,'1111122,1111122,1111122' 
DISL,ioos:station:DISL:PPTA:1,2015-10-02T05:30:00Z,30.2791,-87.5561,0.0,3.99,342.2,-9999.0,'1111122,1111122,1111122' 
DISL,ioos:station:DISL:PPTA:1,2015-10-02T06:00:00Z,30.2791,-87.5561,0.0,4.68,336.4,-9999.0,'1111122,1111122,1111122' 
DISL,ioos:station:DISL:PPTA:1,2015-10-02T06:30:00Z,30.2791,-87.5561,0.0,5.08,338.1,-9999.0,'1111122,1111122,1111122' 
DISL,ioos:station:DISL:PPTA:1,2015-10-02T07:00:00Z,30.2791,-87.5561,0.0,4.7,344.5,-9999.0,'1111122,1111122,1111122' 
DISL,ioos:station:DISL:PPTA:1,2015-10-02T07:30:00Z,30.2791,-87.5561,0.0,4.51,347.0,-9999.0,'1111122,1111122,1111122' 
DISL,ioos:station:DISL:PPTA:1,2015-10-02T08:00:00Z,30.2791,-87.5561,0.0,3.83,347.3,-9999.0,'1111122,1111122,1111122' 
DISL,ioos:station:DISL:PPTA:1,2015-10-02T08:30:00Z,30.2791,-87.5561,0.0,4.19,340.6,-9999.0,'1111122,1111122,1111122' 
DISL,ioos:station:DISL:PPTA:1,2015-10-02T09:00:00Z,30.2791,-87.5561,0.0,5.69,334.8,-9999.0,'1111122,1111122,1111122' 
DISL,ioos:station:DISL:PPTA:1,2015-10-02T09:30:00Z,30.2791,-87.5561,0.0,5.06,339.8,-9999.0,'1111122,1111122,1111122' 
DISL,ioos:station:DISL:PPTA:1,2015-10-02T10:00:00Z,30.2791,-87.5561,0.0,5.83,330.8,-9999.0,'1111122,1111122,1111122' 
DISL,ioos:station:DISL:PPTA:1,2015-10-02T10:30:00Z,30.2791,-87.5561,0.0,5.82,357.7,-9999.0,'1111122,1111122,1111122' 
DISL,ioos:station:DISL:PPTA:1,2015-10-02T11:00:00Z,30.2791,-87.5561,0.0,5.6,343.9,-9999.0,'1111122,1111122,1111122' 
DISL,ioos:station:DISL:PPTA:1,2015-10-02T11:30:00Z,30.2791,-87.5561,0.0,6.1,343.1,-9999.0,'1111122,1111122,1111122' 
DISL,ioos:station:DISL:PPTA:1,2015-10-02T12:00:00Z,30.2791,-87.5561,0.0,5.92,339.7,-9999.0,'1111122,1111122,1111122' 
DISL,ioos:station:DISL:PPTA:1,2015-10-02T12:30:00Z,30.2791,-87.5561,0.0,5.55,341.3,-9999.0,'1111122,1111122,1111122' 
DISL,ioos:station:DISL:PPTA:1,2015-10-02T13:00:00Z,30.2791,-87.5561,0.0,5.17,337.1,-9999.0,'1111122,1111122,1111122' 
DISL,ioos:station:DISL:PPTA:1,2015-10-02T13:30:00Z,30.2791,-87.5561,0.0,6.29,332.1,-9999.0,'1111122,1111122,1111122' 
DISL,ioos:station:DISL:PPTA:1,2015-10-02T14:00:00Z,30.2791,-87.5561,0.0,6.35,353.8,-9999.0,'1111122,1111122,1111122' 
DISL,ioos:station:DISL:PPTA:1,2015-10-02T14:30:00Z,30.2791,-87.5561,0.0,6.61,343.5,-9999.0,'1111122,1111122,1111122' 
DISL,ioos:station:DISL:PPTA:1,2015-10-02T15:00:00Z,30.2791,-87.5561,0.0,6.23,353.0,-9999.0,'1111122,1111122,1111122' 
DISL,ioos:station:DISL:PPTA:1,2015-10-02T15:30:00Z,30.2791,-87.5561,0.0,6.21,352.9,-9999.0,'1111122,1111122,1111122' 
DISL,ioos:station:DISL:PPTA:1,2015-10-02T16:00:00Z,30.2791,-87.5561,0.0,5.58,347.6,-9999.0,'1111122,1111122,1111122' 
DISL,ioos:station:DISL:PPTA:1,2015-10-02T16:30:00Z,30.2791,-87.5561,0.0,5.35,343.6,-9999.0,'1111122,1111122,1111122' 
DISL,ioos:station:DISL:PPTA:1,2015-10-02T17:00:00Z,30.2791,-87.5561,0.0,5.48,329.5,-9999.0,'1111122,1111122,1111122' 
DISL,ioos:station:DISL:PPTA:1,2015-10-02T17:30:00Z,30.2791,-87.5561,0.0,5.76,347.5,-9999.0,'1111122,1111122,1111122' 
DISL,ioos:station:DISL:PPTA:1,2015-10-02T18:00:00Z,30.2791,-87.5561,0.0,5.18,337.2,-9999.0,'1111122,1111122,1111122' 
DISL,ioos:station:DISL:PPTA:1,2015-10-02T18:30:00Z,30.2791,-87.5561,0.0,5.1,331.2,-9999.0,'1111122,1111122,1111122' 
DISL,ioos:station:DISL:PPTA:1,2015-10-02T19:00:00Z,30.2791,-87.5561,0.0,5.97,328.4,-9999.0,'1111122,1111122,1111122' 
DISL,ioos:station:DISL:PPTA:1,2015-10-02T19:30:00Z,30.2791,-87.5561,0.0,6.91,332.7,-9999.0,'1111122,1111122,1111122' 
DISL,ioos:station:DISL:PPTA:1,2015-10-02T20:00:00Z,30.2791,-87.5561,0.0,7.77,334.0,-9999.0,'1111122,1111122,1111122' 
DISL,ioos:station:DISL:PPTA:1,2015-10-02T20:30:00Z,30.2791,-87.5561,0.0,7.19,352.1,-9999.0,'1111122,1111122,1111122' 
DISL,ioos:station:DISL:PPTA:1,2015-10-02T21:00:00Z,30.2791,-87.5561,0.0,7.06,340.0,-9999.0,'1111122,1111122,1111122' 
DISL,ioos:station:DISL:PPTA:1,2015-10-02T21:30:00Z,30.2791,-87.5561,0.0,5.95,342.2,-9999.0,'1111122,1111122,1111122' 
DISL,ioos:station:DISL:PPTA:1,2015-10-02T22:00:00Z,30.2791,-87.5561,0.0,5.9,345.7,-9999.0,'1111122,1111122,1111122' 
DISL,ioos:station:DISL:PPTA:1,2015-10-02T22:30:00Z,30.2791,-87.5561,0.0,5.93,337.9,-9999.0,'1111122,1111122,1111122' 
DISL,ioos:station:DISL:PPTA:1,2015-10-02T23:00:00Z,30.2791,-87.5561,0.0,6.15,350.8,-9999.0,'1111122,1111122,1111122' 
DISL,ioos:station:DISL:PPTA:1,2015-10-02T23:30:00Z,30.2791,-87.5561,0.0,5.83,351.9,-9999.0,'1111122,1111122,1111122' 
DISL,ioos:station:DISL:PPTA:1,2015-10-03T00:00:00Z,30.2791,-87.5561,0.0,5.73,343.3,-9999.0,'1111122,1111122,1111122' 
DISL,ioos:station:DISL:PPTA:1,2015-10-03T00:30:00Z,30.2791,-87.5561,0.0,6.55,347.7,-9999.0,'1111122,1111122,1111122' 
DISL,ioos:station:DISL:PPTA:1,2015-10-03T01:00:00Z,30.2791,-87.5561,0.0,5.66,346.4,-9999.0,'1111122,1111122,1111122' 
DISL,ioos:station:DISL:PPTA:1,2015-10-03T01:30:00Z,30.2791,-87.5561,0.0,6.17,339.5,-9999.0,'1111122,1111122,1111122' 
DISL,ioos:station:DISL:PPTA:1,2015-10-03T02:00:00Z,30.2791,-87.5561,0.0,6.14,333.6,-9999.0,'1111122,1111122,1111122' 
DISL,ioos:station:DISL:PPTA:1,2015-10-03T02:30:00Z,30.2791,-87.5561,0.0,5.49,330.6,-9999.0,'1111122,1111122,1111122' 
DISL,ioos:station:DISL:PPTA:1,2015-10-03T03:00:00Z,30.2791,-87.5561,0.0,5.33,332.8,-9999.0,'1111122,1111122,1111122' 
DISL,ioos:station:DISL:PPTA:1,2015-10-03T03:30:00Z,30.2791,-87.5561,0.0,5.95,329.5,-9999.0,'1111122,1111122,1111122' 
DISL,ioos:station:DISL:PPTA:1,2015-10-03T04:00:00Z,30.2791,-87.5561,0.0,6.07,338.7,-9999.0,'1111122,1111122,1111122' 
DISL,ioos:station:DISL:PPTA:1,2015-10-03T04:30:00Z,30.2791,-87.5561,0.0,5.74,329.3,-9999.0,'1111122,1111122,1111122' 
DISL,ioos:station:DISL:PPTA:1,2015-10-03T05:00:00Z,30.2791,-87.5561,0.0,5.54,332.6,-9999.0,'1111122,1111122,1111122' 
DISL,ioos:station:DISL:PPTA:1,2015-10-03T05:30:00Z,30.2791,-87.5561,0.0,6.14,348.0,-9999.0,'1111122,1111122,1111122' 
DISL,ioos:station:DISL:PPTA:1,2015-10-03T06:00:00Z,30.2791,-87.5561,0.0,4.84,330.2,-9999.0,'1111122,1111122,1111122' 
DISL,ioos:station:DISL:PPTA:1,2015-10-03T06:30:00Z,30.2791,-87.5561,0.0,4.07,327.3,-9999.0,'1111122,1111122,1111122' 
DISL,ioos:station:DISL:PPTA:1,2015-10-03T07:00:00Z,30.2791,-87.5561,0.0,5.04,324.3,-9999.0,'1111122,1111122,1111122' 
DISL,ioos:station:DISL:PPTA:1,2015-10-03T07:30:00Z,30.2791,-87.5561,0.0,5.25,323.1,-9999.0,'1111122,1111122,1111122' 
DISL,ioos:station:DISL:PPTA:1,2015-10-03T08:00:00Z,30.2791,-87.5561,0.0,4.76,339.8,-9999.0,'1111122,1111122,1111122' 
DISL,ioos:station:DISL:PPTA:1,2015-10-03T08:30:00Z,30.2791,-87.5561,0.0,5.05,326.7,-9999.0,'1111122,1111122,1111122' 
DISL,ioos:station:DISL:PPTA:1,2015-10-03T09:00:00Z,30.2791,-87.5561,0.0,5.01,329.7,-9999.0,'1111122,1111122,1111122' 
DISL,ioos:station:DISL:PPTA:1,2015-10-03T09:30:00Z,30.2791,-87.5561,0.0,5.17,334.1,-9999.0,'1111122,1111122,1111122' 
DISL,ioos:station:DISL:PPTA:1,2015-10-03T10:00:00Z,30.2791,-87.5561,0.0,5.11,346.9,-9999.0,'1111122,1111122,1111122' 
DISL,ioos:station:DISL:PPTA:1,2015-10-03T10:30:00Z,30.2791,-87.5561,0.0,5.13,343.9,-9999.0,'1111122,1111122,1111122' 
DISL,ioos:station:DISL:PPTA:1,2015-10-03T11:00:00Z,30.2791,-87.5561,0.0,4.88,336.0,-9999.0,'1111122,1111122,1111122' 
DISL,ioos:station:DISL:PPTA:1,2015-10-03T11:30:00Z,30.2791,-87.5561,0.0,5.09,333.2,-9999.0,'1111122,1111122,1111122' 
DISL,ioos:station:DISL:PPTA:1,2015-10-03T12:00:00Z,30.2791,-87.5561,0.0,4.7,350.5,-9999.0,'1111122,1111122,1111122' 
DISL,ioos:station:DISL:PPTA:1,2015-10-03T12:30:00Z,30.2791,-87.5561,0.0,5.03,339.5,-9999.0,'1111122,1111122,1111122' 
DISL,ioos:station:DISL:PPTA:1,2015-10-03T13:00:00Z,30.2791,-87.5561,0.0,4.63,334.7,-9999.0,'1111122,1111122,1111122' 
DISL,ioos:station:DISL:PPTA:1,2015-10-03T13:30:00Z,30.2791,-87.5561,0.0,5.05,329.2,-9999.0,'1111122,1111122,1111122' 
DISL,ioos:station:DISL:PPTA:1,2015-10-03T14:00:00Z,30.2791,-87.5561,0.0,5.66,344.8,-9999.0,'1111122,1111122,1111122' 
DISL,ioos:station:DISL:PPTA:1,2015-10-03T14:30:00Z,30.2791,-87.5561,0.0,6.02,356.8,-9999.0,'1111122,1111122,1111122' 
DISL,ioos:station:DISL:PPTA:1,2015-10-03T15:00:00Z,30.2791,-87.5561,0.0,4.97,350.0,-9999.0,'1111122,1111122,1111122' 
DISL,ioos:station:DISL:PPTA:1,2015-10-03T15:30:00Z,30.2791,-87.5561,0.0,5.39,329.3,-9999.0,'1111122,1111122,1111122' 
DISL,ioos:station:DISL:PPTA:1,2015-10-03T16:00:00Z,30.2791,-87.5561,0.0,5.63,333.6,-9999.0,'1111122,1111122,1111122' 
DISL,ioos:station:DISL:PPTA:1,2015-10-03T16:30:00Z,30.2791,-87.5561,0.0,5.81,348.9,-9999.0,'1111122,1111122,1111122' 
DISL,ioos:station:DISL:PPTA:1,2015-10-03T17:00:00Z,30.2791,-87.5561,0.0,6.42,309.2,-9999.0,'1111122,1111122,1111122' 
DISL,ioos:station:DISL:PPTA:1,2015-10-03T17:30:00Z,30.2791,-87.5561,0.0,6.28,331.6,-9999.0,'1111122,1111122,1111122' 
DISL,ioos:station:DISL:PPTA:1,2015-10-03T18:00:00Z,30.2791,-87.5561,0.0,6.35,319.6,-9999.0,'1111122,1111122,1111122' 
DISL,ioos:station:DISL:PPTA:1,2015-10-03T18:30:00Z,30.2791,-87.5561,0.0,5.27,339.2,-9999.0,'1111122,1111122,1111122' 
DISL,ioos:station:DISL:PPTA:1,2015-10-03T19:00:00Z,30.2791,-87.5561,0.0,5.05,320.9,-9999.0,'1111122,1111122,1111122' 
DISL,ioos:station:DISL:PPTA:1,2015-10-03T19:30:00Z,30.2791,-87.5561,0.0,6.02,317.0,-9999.0,'1111122,1111122,1111122' 
DISL,ioos:station:DISL:PPTA:1,2015-10-03T20:00:00Z,30.2791,-87.5561,0.0,6.38,323.2,-9999.0,'1111122,1111122,1111122' 
DISL,ioos:station:DISL:PPTA:1,2015-10-03T20:30:00Z,30.2791,-87.5561,0.0,6.41,326.4,-9999.0,'1111122,1111122,1111122' 
DISL,ioos:station:DISL:PPTA:1,2015-10-03T21:00:00Z,30.2791,-87.5561,0.0,6.51,327.5,-9999.0,'1111122,1111122,1111122' 
DISL,ioos:station:DISL:PPTA:1,2015-10-03T21:30:00Z,30.2791,-87.5561,0.0,6.3,345.1,-9999.0,'1111122,1111122,1111122' 
DISL,ioos:station:DISL:PPTA:1,2015-10-03T22:00:00Z,30.2791,-87.5561,0.0,6.26,347.0,-9999.0,'1111122,1111122,1111122' 
DISL,ioos:station:DISL:PPTA:1,2015-10-03T22:30:00Z,30.2791,-87.5561,0.0,5.5,352.2,-9999.0,'1111122,1111122,1111122' 
DISL,ioos:station:DISL:PPTA:1,2015-10-03T23:00:00Z,30.2791,-87.5561,0.0,5.84,356.0,-9999.0,'1111122,1111122,1111122' 
DISL,ioos:station:DISL:PPTA:1,2015-10-03T23:30:00Z,30.2791,-87.5561,0.0,5.44,320.6,-9999.0,'1111122,1111122,1111122' 
DISL,ioos:station:DISL:PPTA:1,2015-10-04T00:00:00Z,30.2791,-87.5561,0.0,4.89,323.1,-9999.0,'1111122,1111122,1111122' 
DISL,ioos:station:DISL:PPTA:1,2015-10-04T00:30:00Z,30.2791,-87.5561,0.0,3.81,342.5,-9999.0,'1111122,1111122,1111122' 
DISL,ioos:station:DISL:PPTA:1,2015-10-04T01:00:00Z,30.2791,-87.5561,0.0,4.05,336.5,-9999.0,'1111122,1111122,1111122' 
DISL,ioos:station:DISL:PPTA:1,2015-10-04T01:30:00Z,30.2791,-87.5561,0.0,4.37,325.2,-9999.0,'1111122,1111122,1111122' 
DISL,ioos:station:DISL:PPTA:1,2015-10-04T02:00:00Z,30.2791,-87.5561,0.0,4.83,330.3,-9999.0,'1111122,1111122,1111122' 
DISL,ioos:station:DISL:PPTA:1,2015-10-04T02:30:00Z,30.2791,-87.5561,0.0,4.79,330.4,-9999.0,'1111122,1111122,1111122' 
DISL,ioos:station:DISL:PPTA:1,2015-10-04T03:00:00Z,30.2791,-87.5561,0.0,4.36,328.7,-9999.0,'1111122,1111122,1111122' 
DISL,ioos:station:DISL:PPTA:1,2015-10-04T03:30:00Z,30.2791,-87.5561,0.0,4.56,330.1,-9999.0,'1111122,1111122,1111122' 
DISL,ioos:station:DISL:PPTA:1,2015-10-04T04:00:00Z,30.2791,-87.5561,0.0,5.22,331.0,-9999.0,'1111122,1111122,1111122' 
DISL,ioos:station:DISL:PPTA:1,2015-10-04T04:30:00Z,30.2791,-87.5561,0.0,4.33,331.5,-9999.0,'1111122,1111122,1111122' 
DISL,ioos:station:DISL:PPTA:1,2015-10-04T05:00:00Z,30.2791,-87.5561,0.0,4.24,341.3,-9999.0,'1111122,1111122,1111122' 
DISL,ioos:station:DISL:PPTA:1,2015-10-04T05:30:00Z,30.2791,-87.5561,0.0,4.07,320.2,-9999.0,'1111122,1111122,1111122' 
DISL,ioos:station:DISL:PPTA:1,2015-10-04T06:00:00Z,30.2791,-87.5561,0.0,4.41,333.7,-9999.0,'1111122,1111122,1111122' 
DISL,ioos:station:DISL:PPTA:1,2015-10-04T06:30:00Z,30.2791,-87.5561,0.0,4.61,337.9,-9999.0,'1111122,1111122,1111122' 
DISL,ioos:station:DISL:PPTA:1,2015-10-04T07:00:00Z,30.2791,-87.5561,0.0,4.28,354.1,-9999.0,'1111122,1111122,1111122' 
DISL,ioos:station:DISL:PPTA:1,2015-10-04T07:30:00Z,30.2791,-87.5561,0.0,5.5,333.0,-9999.0,'1111122,1111122,1111122' 
DISL,ioos:station:DISL:PPTA:1,2015-10-04T08:00:00Z,30.2791,-87.5561,0.0,4.47,324.9,-9999.0,'1111122,1111122,1111122' 
DISL,ioos:station:DISL:PPTA:1,2015-10-04T08:30:00Z,30.2791,-87.5561,0.0,4.39,329.0,-9999.0,'1111122,1111122,1111122' 
DISL,ioos:station:DISL:PPTA:1,2015-10-04T09:00:00Z,30.2791,-87.5561,0.0,4.02,325.3,-9999.0,'1111122,1111122,1111122' 
DISL,ioos:station:DISL:PPTA:1,2015-10-04T09:30:00Z,30.2791,-87.5561,0.0,3.84,344.5,-9999.0,'1111122,1111122,1111122' 
DISL,ioos:station:DISL:PPTA:1,2015-10-04T10:00:00Z,30.2791,-87.5561,0.0,4.36,326.6,-9999.0,'1111122,1111122,1111122' 
DISL,ioos:station:DISL:PPTA:1,2015-10-04T10:30:00Z,30.2791,-87.5561,0.0,4.08,333.4,-9999.0,'1111122,1111122,1111122' 
DISL,ioos:station:DISL:PPTA:1,2015-10-04T11:00:00Z,30.2791,-87.5561,0.0,5.11,331.7,-9999.0,'1111122,1111122,1111122' 
DISL,ioos:station:DISL:PPTA:1,2015-10-04T11:30:00Z,30.2791,-87.5561,0.0,4.98,323.1,-9999.0,'1111122,1111122,1111122' 
DISL,ioos:station:DISL:PPTA:1,2015-10-04T12:00:00Z,30.2791,-87.5561,0.0,5.04,336.4,-9999.0,'1111122,1111122,1111122' 
DISL,ioos:station:DISL:PPTA:1,2015-10-04T12:30:00Z,30.2791,-87.5561,0.0,5.44,342.8,-9999.0,'1111122,1111122,1111122' 
DISL,ioos:station:DISL:PPTA:1,2015-10-04T13:00:00Z,30.2791,-87.5561,0.0,4.83,328.9,-9999.0,'1111122,1111122,1111122' 
DISL,ioos:station:DISL:PPTA:1,2015-10-04T13:30:00Z,30.2791,-87.5561,0.0,5.2,345.8,-9999.0,'1111122,1111122,1111122' 
DISL,ioos:station:DISL:PPTA:1,2015-10-04T14:00:00Z,30.2791,-87.5561,0.0,5.88,343.6,-9999.0,'1111122,1111122,1111122' 
DISL,ioos:station:DISL:PPTA:1,2015-10-04T14:30:00Z,30.2791,-87.5561,0.0,5.73,336.7,-9999.0,'1111122,1111122,1111122' 
DISL,ioos:station:DISL:PPTA:1,2015-10-04T15:00:00Z,30.2791,-87.5561,0.0,6.03,318.1,-9999.0,'1111122,1111122,1111122' 
DISL,ioos:station:DISL:PPTA:1,2015-10-04T15:30:00Z,30.2791,-87.5561,0.0,5.99,317.5,-9999.0,'1111122,1111122,1111122' 
DISL,ioos:station:DISL:PPTA:1,2015-10-04T16:00:00Z,30.2791,-87.5561,0.0,5.49,327.7,-9999.0,'1111122,1111122,1111122' 
DISL,ioos:station:DISL:PPTA:1,2015-10-04T16:30:00Z,30.2791,-87.5561,0.0,5.63,316.4,-9999.0,'1111122,1111122,1111122' 
DISL,ioos:station:DISL:PPTA:1,2015-10-04T17:00:00Z,30.2791,-87.5561,0.0,5.95,328.8,-9999.0,'1111122,1111122,1111122' 
DISL,ioos:station:DISL:PPTA:1,2015-10-04T17:30:00Z,30.2791,-87.5561,0.0,4.62,326.6,-9999.0,'1111122,1111122,1111122' 
DISL,ioos:station:DISL:PPTA:1,2015-10-04T18:00:00Z,30.2791,-87.5561,0.0,4.8,303.2,-9999.0,'1111122,1111122,1111122' 
DISL,ioos:station:DISL:PPTA:1,2015-10-04T18:30:00Z,30.2791,-87.5561,0.0,4.06,351.5,-9999.0,'1111122,1111122,1111122' 
DISL,ioos:station:DISL:PPTA:1,2015-10-04T19:00:00Z,30.2791,-87.5561,0.0,5.15,300.4,-9999.0,'1111122,1111122,1111122' 
DISL,ioos:station:DISL:PPTA:1,2015-10-04T19:30:00Z,30.2791,-87.5561,0.0,5.18,310.2,-9999.0,'1111122,1111122,1111122' 
DISL,ioos:station:DISL:PPTA:1,2015-10-04T20:00:00Z,30.2791,-87.5561,0.0,5.25,301.6,-9999.0,'1111122,1111122,1111122' 
DISL,ioos:station:DISL:PPTA:1,2015-10-04T20:30:00Z,30.2791,-87.5561,0.0,5.08,316.8,-9999.0,'1111122,1111122,1111122' 
DISL,ioos:station:DISL:PPTA:1,2015-10-04T21:00:00Z,30.2791,-87.5561,0.0,5.46,357.5,-9999.0,'1111122,1111122,1111122' 
DISL,ioos:station:DISL:PPTA:1,2015-10-04T21:30:00Z,30.2791,-87.5561,0.0,4.61,355.9,-9999.0,'1111122,1111122,1111122' 
DISL,ioos:station:DISL:PPTA:1,2015-10-04T22:00:00Z,30.2791,-87.5561,0.0,4.12,340.6,-9999.0,'1111122,1111122,1111122' 
DISL,ioos:station:DISL:PPTA:1,2015-10-04T22:30:00Z,30.2791,-87.5561,0.0,4.11,343.8,-9999.0,'1111122,1111122,1111122' 
DISL,ioos:station:DISL:PPTA:1,2015-10-04T23:00:00Z,30.2791,-87.5561,0.0,4.4,343.9,-9999.0,'1111122,1111122,1111122' 
DISL,ioos:station:DISL:PPTA:1,2015-10-04T23:30:00Z,30.2791,-87.5561,0.0,3.37,348.7,-9999.0,'1111122,1111122,1111122' 
DISL,ioos:station:DISL:PPTA:1,2015-10-05T00:00:00Z,30.2791,-87.5561,0.0,3.59,324.5,-9999.0,'1111122,1111122,1111122' 
DISL,ioos:station:DISL:PPTA:1,2015-10-05T00:30:00Z,30.2791,-87.5561,0.0,4.57,326.2,-9999.0,'1111122,1111122,1111122' 
DISL,ioos:station:DISL:PPTA:1,2015-10-05T01:00:00Z,30.2791,-87.5561,0.0,4.64,325.7,-9999.0,'1111122,1111122,1111122' 
DISL,ioos:station:DISL:PPTA:1,2015-10-05T01:30:00Z,30.2791,-87.5561,0.0,4.49,325.4,-9999.0,'1111122,1111122,1111122' 
DISL,ioos:station:DISL:PPTA:1,2015-10-05T02:00:00Z,30.2791,-87.5561,0.0,5.43,320.9,-9999.0,'1111122,1111122,1111122' 
DISL,ioos:station:DISL:PPTA:1,2015-10-05T02:30:00Z,30.2791,-87.5561,0.0,5.63,326.3,-9999.0,'1111122,1111122,1111122' 
DISL,ioos:station:DISL:PPTA:1,2015-10-05T03:00:00Z,30.2791,-87.5561,0.0,4.49,327.6,-9999.0,'1111122,1111122,1111122' 
DISL,ioos:station:DISL:PPTA:1,2015-10-05T03:30:00Z,30.2791,-87.5561,0.0,5.41,338.8,-9999.0,'1111122,1111122,1111122' 
DISL,ioos:station:DISL:PPTA:1,2015-10-05T04:00:00Z,30.2791,-87.5561,0.0,5.31,343.1,-9999.0,'1111122,1111122,1111122' 
DISL,ioos:station:DISL:PPTA:1,2015-10-05T04:30:00Z,30.2791,-87.5561,0.0,5.51,349.1,-9999.0,'1111122,1111122,1111122' 